Warning: Javascript must be enabled to use all the features on this page!


Page Loading - Please Wait...

Click to hideNews Bulletins

Streamflow Measurements for New Jersey

Click to hide state-specific text

ALL DATA ARE AT LOCAL TIME



USGS 01408205 Barnegat Bay at Route 37 bridge near Bay Shore NJ


Ocean County, New Jersey
Hydrologic Unit Code 02040301
Latitude  39°56'29", Longitude  74°05'02" NAD83
Output formats
HTML table with channel data
HTML table without channel data
Tab-separated data with channel data
Tab-separated data without channel data
Graph of data
Reselect output format
Meas.
Number
  Date       Time Time
Datum
Measurement
Used?
  Who Measuring
Agency
Stream
flow
(ft3/s)
Gage
Height
(ft)
GH
Change
(ft)
Meas.
Duration
(hr)
Meas.
Rated
  Control Flow
Adjust.
Code
 
1682014-07-11 12:04EDTYesmn/kmbUSGS65200.25 0.20Unspecified NONE
1672014-07-11 11:53:30EDTYesmn/kmbUSGS109000.28 0.20Unspecified NONE
1662014-07-11 11:43EDTYesmn/kmbUSGS55900.31 0.20Unspecified NONE
1652014-07-11 11:33EDTYesmn/kmbUSGS99300.34 0.20Unspecified NONE
1642014-07-11 11:23EDTYesmn/kmbUSGS23300.35 0.20Unspecified NONE
1632014-07-11 11:13EDTYesmn/kmbUSGS60400.37 0.20Unspecified NONE
1622014-07-11 11:03EDTYesmn/kmbUSGS8400.41 0.20Unspecified NONE
1612014-07-11 10:52:30EDTYesmn/kmbUSGS22500.41 0.20Unspecified NONE
1602014-07-11 10:42:30EDTYesmn/kmbUSGS-16600.42 0.20Unspecified NONE
1592014-07-11 10:32EDTYesmn/kmbUSGS-2420.43 0.20Unspecified NONE
1582014-07-11 10:22EDTYesmn/kmbUSGS-40800.42 0.20Unspecified NONE
1572014-07-11 10:12EDTYesmn/kmbUSGS-13800.40 0.20Unspecified NONE
1562014-07-11 10:02EDTYesmn/kmbUSGS-55200.40 0.20Unspecified NONE
1552014-07-11 09:52EDTYesmn/kmbUSGS-25900.40 0.20Unspecified NONE
1542014-07-11 09:42EDTYesmn/kmbUSGS-74400.37 0.20Unspecified NONE
1532014-07-11 09:31EDTYesmn/kmbUSGS-57300.35 0.20Unspecified NONE
1522014-07-11 09:20:30EDTYesmn/kmbUSGS-104000.34 0.20Unspecified NONE
1512014-07-11 09:10EDTYesmn/kmbUSGS-82200.29 0.20Unspecified NONE
1502014-07-11 09:00EDTYesmn/kmbUSGS-113000.28 0.20Unspecified NONE
1492014-07-11 08:49:30EDTYesmn/kmbUSGS-88800.26 0.20Unspecified NONE
1482014-07-11 08:39EDTYesmn/kmbUSGS-130000.25 0.20Unspecified NONE
1472014-07-11 08:29EDTYesmn/kmbUSGS-97800.24 0.20Unspecified NONE
1462014-07-11 08:18:30EDTYesmn/kmbUSGS-136000.22 0.20Unspecified NONE
1452014-07-11 08:08:30EDTYesmn/kmbUSGS-104000.19 0.20Unspecified NONE
1442014-07-11 07:58EDTYesmn/kmbUSGS-142000.15 0.20Unspecified NONE
1432014-07-11 07:48EDTYesmn/kmbUSGS-100000.16 0.20Unspecified NONE
1422014-07-11 07:37:30EDTYesmn/kmbUSGS-121000.14 0.20Unspecified NONE
1412014-07-11 07:26:30EDTYesmn/kmbUSGS-76200.11 0.20Unspecified NONE
1402014-07-11 07:16EDTYesmn/kmbUSGS-91500.08 0.20Unspecified NONE
1392014-07-11 07:06EDTYesmn/kmbUSGS-198000.07 0.20Unspecified NONE
1382014-07-11 06:56EDTYesmn/kmbUSGS-46600.04 0.20Unspecified NONE
1372014-07-11 06:44:30EDTYesmn/kmbUSGS17200.02 0.20Unspecified NONE
1362014-07-10 19:03:30EDTYesmn/kmbUSGS-194000.07 0.20Unspecified NONE
1352014-07-10 18:53EDTYesmn/kmbUSGS-166000.03 0.20Unspecified NONE
1342014-07-10 18:43EDTYesmn/kmbUSGS-189000.00 0.20Unspecified NONE
1332014-07-10 18:33EDTYesmn/kmbUSGS-16600-0.02 Unspecified NONE
1322014-07-10 18:22EDTYesmn/kmbUSGS-18400-0.05 1.20Unspecified NONE
1312014-07-10 18:12EDTYesmn/kmbUSGS-14000-0.09 0.20Unspecified NONE
1302014-07-10 18:02EDTYesmn/kmbUSGS-15900-0.11 0.20Unspecified NONE
1292014-07-10 17:39EDTYesmn/kmbUSGS-9540-0.17 0.20Unspecified NONE
1282014-07-10 17:27:30EDTYesmn/kmbUSGS3540-0.21 0.20Unspecified NONE
1272014-07-10 17:17EDTYesmn/kmbUSGS-3980-0.24 0.20Unspecified NONE
1262014-07-10 17:06:30EDTYesmn/kmbUSGS852-0.28 0.20Unspecified NONE
1252014-07-10 16:56EDTYesmn/kmbUSGS147-0.29 0.20Unspecified NONE
1242014-07-10 16:45:30EDTYesmn/kmbUSGS5720-0.33 0.20Unspecified NONE
1232014-07-10 16:35:30EDTYesmn/kmbUSGS3600-0.37 0.20Unspecified NONE
1222014-07-10 16:25EDTYesmn/kmbUSGS8840-0.39 0.20Unspecified NONE
1212014-07-10 16:14EDTYesmn/kmbUSGS5700-0.39 0.10Unspecified NONE
1202014-07-10 16:03:30EDTYesmn/kmbUSGS9230-0.36 0.20Unspecified NONE
1192014-07-10 15:52:30EDTYesmn/kmbUSGS6340-0.36 0.20Unspecified NONE
1182014-07-10 15:42:30EDTYesmn/kmbUSGS9550-0.34 0.20Unspecified NONE
1172014-07-10 15:31:30EDTYesmn/kmbUSGS7790-0.32 0.20Unspecified NONE
1162014-07-10 15:21:30EDTYesmn/kmbUSGS9460-0.32 0.20Unspecified NONE
1152014-07-10 15:11EDTYesmn/kmbUSGS6750-0.27 0.10Unspecified NONE
1142014-07-10 15:01EDTYesmn/kmbUSGS11100-0.25 0.20Unspecified NONE
1132014-07-10 14:50:30EDTYesmn/kmbUSGS7750-0.25 0.20Unspecified NONE
1122014-07-10 14:40EDTYesmn/kmbUSGS11600-0.22 0.20Unspecified NONE
1112014-07-10 14:29:30EDTYesmn/kmbUSGS8270-0.19 0.20Unspecified NONE
1102014-07-10 14:18:30EDTYesmn/jmbUSGS11700-0.15 0.20Unspecified NONE
1092014-07-10 13:58:30EDTYesmn/kmbUSGS11100-0.11 0.20Unspecified NONE
1082014-07-10 13:48:30EDTYesmn/kmbUSGS7800-0.10 0.20Unspecified NONE
1072014-07-10 13:38EDTYesmn/kmbUSGS12000-0.11 0.20Unspecified NONE
1062014-07-10 13:25:30EDTYesmn/kmbUSGS6910-0.04 0.20Unspecified NONE
1052014-07-10 13:11:30EDTYesmn/kmbUSGS109000.01 0.20Unspecified NONE
1042013-06-04 16:20EDTYesjjt/afwUSGS-17500-0.31 Unspecified NONE
1032013-06-04 16:11EDTYesjjt/afwUSGS-11800-0.34 Unspecified NONE
1022013-06-04 16:01EDTYesjjt/afwUSGS-17300-0.33 Unspecified NONE
1012013-06-04 15:41EDTYesjjt/afwUSGS-13100-0.44 Unspecified NONE
1002013-06-04 15:30EDTYesjjt/afwUSGS-6430-0.44 Unspecified NONE
992013-06-04 15:20EDTYesjjt/afwUSGS-7180-0.45 Unspecified NONE
982013-06-04 15:08EDTYesjjt/afwUSGS-608-0.50 Unspecified NONE
972013-06-04 14:57EDTYesjjt/afwUSGS-493-0.47 Unspecified NONE
962013-06-04 14:48EDTYesjjt/afwUSGS4130-0.47 Unspecified NONE
952013-06-04 14:39EDTYesjjt/afwUSGS2950-0.47 Unspecified NONE
942013-06-04 14:29EDTYesjjt/afwUSGS5950-0.45 Unspecified NONE
932013-06-04 14:19EDTYesjjt/afwUSGS6530-0.45 Unspecified NONE
922013-06-04 14:09EDTYesjjt/afwUSGS9150-0.44 Unspecified NONE
912013-06-04 13:59EDTYesjjt/afwUSGS7440-0.42 Unspecified NONE
902013-06-04 13:49EDTYesjjt/afwUSGS10800-0.39 Unspecified NONE
892013-06-04 13:40EDTYesjjt/afwUSGS8950-0.42 Unspecified NONE
882013-06-04 13:30EDTYesjjt/afwUSGS10200-0.37 Unspecified NONE
872013-06-04 13:20EDTYesjjt/afwUSGS7940-0.35 Unspecified NONE
862013-06-04 13:10EDTYesjjt/afwUSGS11500-0.34 Unspecified NONE
852013-06-04 12:47EDTYesjjt/afwUSGS11400-0.27 Unspecified NONE
842013-06-04 11:39EDTYesjjt/afwUSGS2230-0.16 Unspecified NONE
832013-06-04 11:29EDTYesjjt/afwUSGS5230-0.12 Unspecified NONE
822013-06-04 11:20EDTYesjjt/afwUSGS888-0.10 Unspecified NONE
812013-06-04 11:09EDTYesjjt/afwUSGS4070-0.09 Unspecified NONE
802013-06-04 10:59EDTYesjjt/afwUSGS-1280-0.07 Unspecified NONE
792013-06-04 10:41EDTYesjjt/afwUSGS2560-0.06 Unspecified NONE
782012-06-06 18:24EDTYesmn/jjtUSGS27001.04 Unspecified NONE
772012-06-06 17:50EDTYesmn/jjtUSGS129001.09 Unspecified NONE
762012-06-06 17:42EDTYesmn/jjtUSGS79901.11 Unspecified NONE
752012-06-06 17:34EDTYesmn/jjtUSGS142001.15 Unspecified NONE
742012-06-06 17:25EDTYesmn/jjtUSGS105001.16 Unspecified NONE
732012-06-06 17:16EDTYesmn/jjtUSGS163001.19 Unspecified NONE
722012-06-06 17:08EDTYesmn/jjtUSGS107001.21 Unspecified NONE
712012-06-06 17:00EDTYesmn/jjtUSGS150001.22 Unspecified NONE
702012-06-06 16:51EDTYesmn/jjtUSGS100001.24 Unspecified NONE
692012-06-06 16:43EDTYesmn/jjtUSGS157001.24 Unspecified NONE
682012-06-06 16:35EDTYesmn/jjtUSGS105001.28 Unspecified NONE
672012-06-06 16:27EDTYesmn/jjtUSGS144001.29 Unspecified NONE
662012-06-06 16:18EDTYesmn/jjtUSGS92301.32 Unspecified NONE
652012-06-06 16:09EDTYesmn/jjtUSGS137001.33 Unspecified NONE
642012-06-06 16:01EDTYesmn/jjtUSGS87901.35 Unspecified NONE
632012-06-06 15:52EDTYesmn/jjtUSGS139001.37 Unspecified NONE
622012-06-06 15:44EDTYesmn/jjtUSGS76701.39 Unspecified NONE
612012-06-06 15:35EDTYesmn/jjtUSGS125001.41 Unspecified NONE
602012-06-06 15:27EDTYesmn/jjtUSGS55401.43 Unspecified NONE
592012-06-06 15:19EDTYesmn/jjtUSGS131001.46 Unspecified NONE
582012-06-06 15:10EDTYesmn/jjtUSGS43401.45 Unspecified NONE
572012-06-06 15:02EDTYesmn/jjtUSGS107001.46 Unspecified NONE
562012-06-06 14:53EDTYesmn/jjtUSGS39101.48 Unspecified NONE
552012-06-06 14:45EDTYesmn/jjtUSGS74301.48 Unspecified NONE
542012-06-06 14:37EDTYesmn/jjtUSGS18301.51 Unspecified NONE
532012-06-06 14:29EDTYesmn/jjtUSGS43201.52 Unspecified NONE
522012-06-06 14:21EDTYesmn/jjtUSGS-34101.55 Unspecified NONE
512012-06-06 14:13EDTYesmn/jjtUSGS2951.54 Unspecified NONE
502012-06-06 14:03EDTYesmn/jjtUSGS-75701.53 Unspecified NONE
492012-06-06 13:55EDTYesmn/jjtUSGS-51401.58 Unspecified NONE
482012-06-06 13:47EDTYesmn/jjtUSGS-121001.58 Unspecified NONE
472012-06-06 13:23EDTYesmn/jjtUSGS-133001.60 Unspecified NONE
462012-06-06 13:15EDTYesmn/jjtUSGS-215001.60 Unspecified NONE
452012-06-06 13:07EDTYesmn/jjtUSGS-154001.62 Unspecified NONE
442012-06-06 12:59EDTYesmn/jjtUSGS-223001.60 Unspecified NONE
432012-06-06 12:51EDTYesmn/jjtUSGS-165001.58 Unspecified NONE
422012-06-06 12:43EDTYesmn/jjtUSGS-227001.56 Unspecified NONE
412012-06-06 12:36EDTYesmn/jjtUSGS-165001.55 Unspecified NONE
402012-06-06 12:28EDTYesmn/jjtUSGS-219001.55 Unspecified NONE
392012-06-06 11:51EDTYesmn/jjtUSGS-158001.48 Unspecified NONE
382012-06-06 11:43EDTYesmn/jjtUSGS-194001.46 Unspecified NONE
372012-06-06 11:18EDTYesmn/jjtUSGS-161001.39 Unspecified NONE
362012-06-06 11:10EDTYesmn/jjtUSGS-200001.38 Unspecified NONE
352012-06-06 11:00EDTYesmn/jjtUSGS-154001.36 Unspecified NONE
342012-06-06 10:52EDTYesmn/jjtUSGS-215001.34 Unspecified NONE
332012-06-06 10:44EDTYesmn/jjtUSGS-152001.32 Unspecified NONE
322012-06-06 10:36EDTYesmn/jjtUSGS-208001.30 Unspecified NONE
312012-06-06 10:28EDTYesmn/jjtUSGS-154001.28 Unspecified NONE
302012-06-06 10:20EDTYesmn/jjtUSGS-192001.25 Unspecified NONE
292012-06-06 10:12EDTYesmn/jjtUSGS-124001.24 Unspecified NONE
282012-06-06 10:04EDTYesmn/jjtUSGS-169001.22 Unspecified NONE
272012-06-06 09:56EDTYesmn/jjtUSGS-88401.20 Unspecified NONE
262012-06-06 09:48EDTYesmn/jjtUSGS-114001.18 Unspecified NONE
252012-06-06 09:39EDTYesmn/jjtUSGS-55601.15 Unspecified NONE
242012-06-06 09:31EDTYesmn/jjtUSGS-64101.14 Unspecified NONE
232012-06-06 09:23EDTYesmn/jjtUSGS3231.12 Unspecified NONE
222012-06-06 09:15EDTYesmn/jjtUSGS-2841.10 Unspecified NONE
212012-06-06 09:07EDTYesmn/jjtUSGS50201.07 Unspecified NONE
202012-06-06 08:59EDTYesmn/jjtUSGS30301.05 Unspecified NONE
192012-06-06 08:50EDTYesmn/jjtUSGS94201.03 Unspecified NONE
182012-06-06 08:42EDTYesmn/jjtUSGS71701.01 Unspecified NONE
172012-06-06 08:34EDTYesmn/jjtUSGS133001.00 Unspecified NONE
162012-06-06 08:26EDTYesmn/jjtUSGS110001.00 Unspecified NONE
152012-06-06 08:18EDTYesmn/jjtUSGS155001.01 Unspecified NONE
142012-06-06 08:10EDTYesmn/jjtUSGS155001.01 Unspecified NONE
132012-06-06 08:02EDTYesmn/jjtUSGS145001.02 Unspecified NONE
122012-06-06 07:55EDTYesmn/jjtUSGS126001.03 Unspecified NONE
112012-06-06 07:47EDTYesmn/jjtUSGS169001.05 Unspecified NONE
102012-06-06 07:39EDTYesmn/jjtUSGS147001.07 Unspecified NONE
92012-06-06 07:31EDTYesmn/jjtUSGS196001.09 Unspecified NONE
82012-06-06 07:23EDTYesmn/jjtUSGS139001.09 Unspecified NONE
72012-06-06 07:15EDTYesmn/jjtUSGS200001.11 Unspecified NONE
62012-06-06 07:07EDTYesmn/jjtUSGS158001.13 Unspecified NONE
52012-06-06 07:00EDTYesmn/jjtUSGS199001.16 Unspecified NONE
42012-06-06 06:52EDTYesmn/jjtUSGS160001.17 Unspecified NONE
32012-06-06 06:45EDTYesmn/jjtUSGS207001.18 Unspecified NONE
22012-06-06 06:37EDTYesmn/jjtUSGS158001.21 Unspecified NONE
12012-06-06 06:28EDTYesmn/jjtUSGS208001.24 Unspecified NONE